sat.trackr.live / text

‹ back to catalog

STARLINK-36437

NORAD 67465 · 2026-008W

PAYLOAD ACTIVE UNKNOWN

§ Identity

Operator
Country
US
Launch date
2026-01-14
Launch site
AFETR
Launch vehicle
Mass (kg)
RCS (m²)

Purposes: comms

External: N2YO · Heavens-Above · Gunter

§ Orbital elements

Epoch: 2026-09-19T03:50:14.130528Z

Period
94.27 min
Inclination
42.9945°
Eccentricity
0.0000704
Mean motion
15.27585403 rev/d
Perigee alt
482.5 km
Apogee alt
483.5 km
Semi-major
6,861.2 km
B*
4.0415e-4
RAAN
192.3701°
Arg perigee
297.3435°
Mean anomaly
62.7344°
Rev number
3,916

§ Raw data

STARLINK-364371 67465U 26008W   26262.15988577  .00010878  00000+0  40415-3 0  99922 67465  42.9945 192.3701 0000704 297.3435  62.7344 15.27585403 39165

JSON: /api/v1/satellites/67465 · /tle

For live sub-satellite position, see the globe view (requires WebGL).

§ Visibility from observer

Set your observer location to see the next 7 days of passes ≥ 10°. The values pass through the URL so the page stays shareable.

No JS? Fill the form by hand. The geolocation button needs JavaScript.